Terminal Aerodrome Forecast
Issued by NWS

Home | Current Version | Previous Version | Text Only | Print | Product List | Glossary On
Versions: 1 2 3 4 5 6 7 8 9 10 11 12 13 14 15 16 17 18 19 20 21 22 23 24 25 26 27
000
FTUS44 KMOB 102300
TAFBFM
TAF
KBFM 102332Z 1100/1124 VRB03KT P6SM SCT250
     FM111500 35004KT P6SM SCT030
     FM111800 34004KT P6SM VCTS SCT030CB=

USA.gov is the U.S. government's official web portal to all federal, state and local government web resources and services.